Location: Biberach+an+der+Riss
(48.0937°N, 9.7888°E)
Time: 16:02:39
(UTC+02:00)

ISS - Visible Passes

Search period start: 24 May 2018 00:00
Search period end: 03 June 2018 00:00
Orbit: 402 x 407 km, 51.6° (Epoch: 25 May)

Date Brightness Start Highest point End Pass type
(mag) Time Alt. Az. Time Alt. Az. Time Alt. Az.
24 May -2.9 01:21:58 10° WNW 01:25:10 49° N 01:27:54 13° E visible
24 May -2.6 02:58:30 10° WNW 03:00:18 28° W 03:00:18 28° W visible
24 May -3.2 22:52:50 10° W 22:56:04 58° NNW 22:59:19 10° ENE visible
25 May -2.6 00:29:43 10° WNW 00:32:52 43° N 00:35:43 12° ENE visible
25 May -2.7 02:06:17 10° WNW 02:08:18 35° WNW 02:08:18 35° WNW visible
25 May -3.7 22:00:33 10° WSW 22:03:50 79° NNW 22:07:07 10° ENE visible
25 May -2.6 23:37:26 10° WNW 23:40:34 42° N 23:43:42 10° ENE visible
26 May -3.6 01:14:04 10° WNW 01:17:14 69° N 01:17:14 69° N visible
26 May -2.7 22:45:05 10° W 22:48:14 45° N 22:51:25 10° ENE visible
27 May -3.1 00:21:51 10° WNW 00:25:04 53° NNE 00:26:25 29° ENE visible
27 May -1.4 01:58:24 10° WNW 01:59:02 14° WNW 01:59:02 14° WNW visible
27 May -3.0 21:52:43 10° W 21:55:56 53° NNW 21:59:09 10° ENE visible
27 May -2.7 23:29:36 10° WNW 23:32:45 45° N 23:35:42 12° E visible
28 May -2.8 01:06:07 10° WNW 01:08:19 38° W 01:08:19 38° W visible
28 May -2.6 22:37:16 10° WNW 22:40:24 42° N 22:43:33 10° ENE visible
29 May -3.8 00:13:52 10° WNW 00:17:09 78° NNE 00:17:39 60° E visible
29 May -2.6 21:44:54 10° W 21:48:03 44° N 21:51:13 10° ENE visible
29 May -3.3 23:21:37 10° WNW 23:24:52 58° NNE 23:27:01 19° E visible
30 May -2.0 00:58:13 10° WNW 00:59:38 21° W 00:59:38 21° W visible
30 May -2.9 22:29:20 10° WNW 22:32:31 47° N 22:35:42 10° E visible
31 May -3.8 00:05:51 10° WNW 00:09:02 60° SW 00:09:02 60° SW visible
31 May -3.9 23:13:33 10° WNW 23:16:50 89° NNE 23:18:27 27° ESE visible
01 Jun -1.3 00:50:34 10° W 00:51:05 13° W 00:51:05 13° W visible
01 Jun -3.5 22:21:16 10° WNW 22:24:32 64° NNE 22:27:47 10° E visible
01 Jun -2.7 23:57:55 10° W 00:00:31 30° SW 00:00:31 30° SW visible
02 Jun -3.5 23:05:30 10° WNW 23:08:41 51° SSW 23:09:58 30° SSE visible
